Weather History for Medford, WI

Change the Weather History Date:

Thursday, July 12, 2012

  Actual Average Record
Temperature  
Mean Temperature 72 °F -  
Max Temperature 86 °F 79 °F 89 °F (2005)
Min Temperature 57 °F 57 °F 42 °F (1976)
Cooling Degree Days 6    
Growing Degree Days 22 (Base 50)    
Moisture  
Dew Point 58 °F    
Average Humidity 63    
Maximum Humidity 88    
Minimum Humidity 37    
Precipitation  
Precipitation 0.00 in - - ()
Sea Level Pressure  
Sea Level Pressure 30.08 in    
Wind  
Wind Speed 4 mph (South)    
Max Wind Speed 12 mph    
Max Gust Speed -    
Visibility 10 miles    
Events      
Averages and records for this station are not official NWS values.
T = Trace of Precipitation, MM = Missing Value Source: NWS Daily Summary

Daily Weather History Graph

Daily Weather History Graph

Search for Another Location

Airport:

Trip Planner

Search our weather history database for the weather conditions in past years. The results will help you decide how hot, cold, wet, or windy it might be!

Date:

Astronomy

Jul. 12, 2012 Rise Set
Actual Time 5:26 AM CDT 8:47 PM CDT
Civil Twilight 4:49 AM CDT 9:23 PM CDT
Nautical Twilight 4:02 AM CDT 10:10 PM CDT
Astronomical Twilight 3:02 AM CDT 11:09 PM CDT
Moon 12:36 AM CDT (7/12) 3:15 PM CDT (7/12)
Length of Visible Light 16h 33m
Length of Day
15h 20m
Waning Crescent, 35% of the Moon is Illuminated
Jul 12
Waning Crescent
Jul 18
New
Jul 26
First Quarter
Aug 1
Full
Aug 9
Last Quarter

Hourly Weather History & Observations

Time (CDT) Temp. Heat Index Dew Point Humidity Pressure Visibility Wind Dir Wind Speed Gust Speed Precip Events Conditions
12:15 AM 64.4 °F - 57.2 °F 77% 30.10 in 10.0 mi SE 4.6 mph - N/A   Clear
12:35 AM 66.2 °F - 57.2 °F 73% 30.10 in 10.0 mi SE 5.8 mph - N/A   Clear
12:55 AM 66.2 °F - 55.4 °F 68% 30.10 in 10.0 mi SSE 5.8 mph - N/A   Clear
1:35 AM 66.2 °F - 55.4 °F 68% 30.10 in 10.0 mi SSE 4.6 mph - N/A   Clear
1:55 AM 64.4 °F - 55.4 °F 73% 30.10 in 10.0 mi SSE 5.8 mph - N/A   Clear
2:15 AM 64.4 °F - 55.4 °F 73% 30.09 in 10.0 mi SSE 4.6 mph - N/A   Clear
2:35 AM 64.4 °F - 53.6 °F 68% 30.09 in 10.0 mi SSE 3.5 mph - N/A   Clear
2:55 AM 62.6 °F - 55.4 °F 77% 30.09 in 10.0 mi South 5.8 mph - N/A   Clear
3:15 AM 62.6 °F - 55.4 °F 77% 30.09 in 10.0 mi South 3.5 mph - N/A   Clear
3:35 AM 60.8 °F - 55.4 °F 82% 30.09 in 10.0 mi Calm Calm - N/A   Clear
3:55 AM 60.8 °F - 53.6 °F 77% 30.09 in 10.0 mi SSE 4.6 mph - N/A   Clear
4:15 AM 60.8 °F - 53.6 °F 77% 30.09 in 10.0 mi Calm Calm - N/A   Clear
4:35 AM 59.0 °F - 55.4 °F 88% 30.09 in 10.0 mi Calm Calm - N/A   Clear
4:55 AM 59.0 °F - 53.6 °F 82% 30.09 in 10.0 mi Calm Calm - N/A   Clear
5:15 AM 57.2 °F - 53.6 °F 88% 30.09 in 10.0 mi Calm Calm - N/A   Clear
5:35 AM 57.2 °F - 53.6 °F 88% 30.09 in 10.0 mi Calm Calm - N/A   Clear
5:55 AM 57.2 °F - 53.6 °F 88% 30.09 in 10.0 mi Calm Calm - N/A   Clear
6:15 AM 57.2 °F - 53.6 °F 88% 30.10 in 10.0 mi Calm Calm - N/A   Clear
6:35 AM 59.0 °F - 55.4 °F 88% 30.10 in 10.0 mi Calm Calm - N/A   Clear
6:55 AM 62.6 °F - 57.2 °F 82% 30.10 in 10.0 mi Calm Calm - N/A   Clear
7:15 AM 64.4 °F - 57.2 °F 77% 30.10 in 10.0 mi Calm Calm - N/A   Clear
7:35 AM 66.2 °F - 60.8 °F 83% 30.11 in 10.0 mi Calm Calm - N/A   Clear
7:55 AM 69.8 °F - 59.0 °F 68% 30.11 in 10.0 mi Calm Calm - N/A   Clear
8:15 AM 71.6 °F - 59.0 °F 64% 30.12 in 10.0 mi Calm Calm - N/A   Clear
8:35 AM 71.6 °F - 60.8 °F 69% 30.12 in 10.0 mi Calm Calm - N/A   Clear
8:55 AM 73.4 °F - 62.6 °F 69% 30.12 in 10.0 mi Calm Calm - N/A   Clear
9:15 AM 75.2 °F - 64.4 °F 69% 30.13 in 10.0 mi Calm Calm - N/A   Clear
9:35 AM 77.0 °F - 62.6 °F 61% 30.12 in 10.0 mi Calm Calm - N/A   Clear
9:55 AM 78.8 °F - 62.6 °F 57% 30.12 in 10.0 mi SSW 4.6 mph - N/A   Clear
10:15 AM 78.8 °F - 62.6 °F 57% 30.12 in 10.0 mi Calm Calm - N/A   Clear
10:35 AM 80.6 °F 81.5 °F 60.8 °F 51% 30.12 in 10.0 mi SW 4.6 mph - N/A   Clear
10:55 AM 80.6 °F 81.5 °F 60.8 °F 51% 30.12 in 10.0 mi SSW 5.8 mph - N/A   Clear
11:15 AM 82.4 °F 82.5 °F 59.0 °F 45% 30.11 in 10.0 mi SW 5.8 mph - N/A   Clear
11:35 AM 82.4 °F 82.5 °F 59.0 °F 45% 30.11 in 10.0 mi South 8.1 mph - N/A   Clear
11:55 AM 82.4 °F 82.5 °F 59.0 °F 45% 30.11 in 10.0 mi South 4.6 mph - N/A   Clear
12:15 PM 82.4 °F 81.7 °F 55.4 °F 39% 30.10 in 10.0 mi SW 4.6 mph - N/A   Scattered Clouds
12:35 PM 82.4 °F 81.7 °F 55.4 °F 39% 30.10 in 10.0 mi South 9.2 mph - N/A   Scattered Clouds
12:55 PM 84.2 °F 83.5 °F 57.2 °F 40% 30.10 in 10.0 mi SSW 4.6 mph - N/A   Scattered Clouds
1:15 PM 82.4 °F 81.7 °F 55.4 °F 39% 30.10 in 10.0 mi SSW 3.5 mph - N/A   Mostly Cloudy
1:35 PM 82.4 °F 82.0 °F 57.2 °F 42% 30.09 in 10.0 mi South 6.9 mph - N/A   Mostly Cloudy
1:55 PM 82.4 °F 81.7 °F 55.4 °F 39% 30.09 in 10.0 mi South 4.6 mph - N/A   Scattered Clouds
2:15 PM 84.2 °F 83.8 °F 59.0 °F 42% 30.08 in 10.0 mi South 11.5 mph - N/A   Scattered Clouds
2:35 PM 84.2 °F 83.5 °F 57.2 °F 40% 30.08 in 10.0 mi SSW 5.8 mph - N/A   Clear
2:55 PM 84.2 °F 83.5 °F 57.2 °F 40% 30.08 in 10.0 mi South 8.1 mph - N/A   Scattered Clouds
3:15 PM 84.2 °F 83.5 °F 57.2 °F 40% 30.07 in 10.0 mi South 3.5 mph - N/A   Scattered Clouds
3:35 PM 86.0 °F 84.9 °F 57.2 °F 37% 30.07 in 10.0 mi South 4.6 mph - N/A   Mostly Cloudy
3:55 PM 84.2 °F 83.5 °F 57.2 °F 40% 30.07 in 10.0 mi SSE 9.2 mph - N/A   Mostly Cloudy
4:15 PM 84.2 °F 83.5 °F 57.2 °F 40% 30.06 in 10.0 mi South 6.9 mph - N/A   Scattered Clouds
4:35 PM 84.2 °F 83.5 °F 57.2 °F 40% 30.06 in 10.0 mi SSW 6.9 mph - N/A   Scattered Clouds
4:55 PM 84.2 °F 83.5 °F 57.2 °F 40% 30.05 in 10.0 mi South 6.9 mph - N/A   Scattered Clouds
5:15 PM 84.2 °F 83.5 °F 57.2 °F 40% 30.05 in 10.0 mi SSW 9.2 mph - N/A   Scattered Clouds
5:35 PM 84.2 °F 83.8 °F 59.0 °F 42% 30.05 in 10.0 mi South 8.1 mph - N/A   Clear
5:55 PM 84.2 °F 83.8 °F 59.0 °F 42% 30.05 in 10.0 mi South 8.1 mph - N/A   Clear
6:15 PM 84.2 °F 83.5 °F 57.2 °F 40% 30.05 in 10.0 mi South 5.8 mph - N/A   Clear
6:35 PM 82.4 °F 82.0 °F 57.2 °F 42% 30.05 in 10.0 mi South 4.6 mph - N/A   Clear
6:55 PM 82.4 °F 82.9 °F 60.8 °F 48% 30.05 in 10.0 mi South 3.5 mph - N/A   Clear
7:15 PM 80.6 °F 81.5 °F 60.8 °F 51% 30.04 in 10.0 mi South 3.5 mph - N/A   Clear
7:35 PM 80.6 °F 81.8 °F 62.6 °F 54% 30.04 in 10.0 mi Calm Calm - N/A   Clear
7:55 PM 78.8 °F - 62.6 °F 57% 30.04 in 10.0 mi Calm Calm - N/A   Clear
8:15 PM 75.2 °F - 66.2 °F 73% 30.04 in 10.0 mi SE 3.5 mph - N/A   Clear
8:35 PM 71.6 °F - 64.4 °F 78% 30.04 in 10.0 mi SE 3.5 mph - N/A   Clear
8:55 PM 71.6 °F - 62.6 °F 73% 30.03 in 10.0 mi SE 3.5 mph - N/A   Clear
9:15 PM 69.8 °F - 62.6 °F 78% 30.04 in 10.0 mi SE 3.5 mph - N/A   Clear
9:35 PM 68.0 °F - 60.8 °F 78% 30.04 in 10.0 mi Calm Calm - N/A   Clear
9:55 PM 68.0 °F - 62.6 °F 83% 30.04 in 10.0 mi Calm Calm - N/A   Clear
10:15 PM 66.2 °F - 60.8 °F 83% 30.04 in 10.0 mi ESE 3.5 mph - N/A   Clear
10:35 PM 66.2 °F - 59.0 °F 78% 30.04 in 10.0 mi SE 4.6 mph - N/A   Clear
10:55 PM 66.2 °F - 60.8 °F 83% 30.04 in 10.0 mi Calm Calm - N/A   Clear
11:15 PM 66.2 °F - 60.8 °F 83% 30.04 in 10.0 mi Calm Calm - N/A   Clear
11:35 PM 64.4 °F - 60.8 °F 88% 30.05 in 10.0 mi East 5.8 mph - N/A   Clear
11:55 PM 66.2 °F - 59.0 °F 78% 30.06 in 10.0 mi SE 6.9 mph - N/A   Clear